Weather History for Cocoa Beach, FL

Change the Weather History Date:

Monday, August 19, 2013

  Actual Average Record
Temperature  
Mean Temperature 83 °F -  
Max Temperature 88 °F 85 °F 94 °F (2012)
Min Temperature 79 °F 75 °F 75 °F (1997)
Cooling Degree Days 18    
Growing Degree Days 33 (Base 50)    
Moisture  
Dew Point 75 °F    
Average Humidity 76    
Maximum Humidity 89    
Minimum Humidity 62    
Precipitation  
Precipitation 0.00 in - - ()
Sea Level Pressure  
Sea Level Pressure 30.05 in    
Wind  
Wind Speed 8 mph (ESE)    
Max Wind Speed 12 mph    
Max Gust Speed -    
Visibility 10 miles    
Events Rain    
Averages and records for this station are not official NWS values.
T = Trace of Precipitation, MM = Missing Value Source: NWS Daily Summary

Daily Weather History Graph

Daily Weather History Graph

Search for Another Location

Airport:

Trip Planner

Search our weather history database for the weather conditions in past years. The results will help you decide how hot, cold, wet, or windy it might be!

Date:

Astronomy

Aug. 19, 2013 Rise Set
Actual Time 6:54 AM EDT 7:57 PM EDT
Civil Twilight 6:29 AM EDT 8:21 PM EDT
Nautical Twilight 6:01 AM EDT 8:50 PM EDT
Astronomical Twilight 5:31 AM EDT 9:19 PM EDT
Moon 6:47 PM EDT (8/19) 5:14 AM EDT (8/19)
Length of Visible Light 13h 51m
Length of Day
13h 02m
Waxing Gibbous, 97% of the Moon is Illuminated
Aug 19
Waxing Gibbous
Aug 20
Full
Aug 28
Last Quarter
Sep 5
New
Sep 12
First Quarter

Hourly Weather History & Observations

Time (EDT) Temp. Heat Index Dew Point Humidity Pressure Visibility Wind Dir Wind Speed Gust Speed Precip Events Conditions
12:58 AM 80.8 °F 87.2 °F 76.6 °F 87% 30.11 in 10.0 mi ESE 5.8 mph - N/A   Clear
1:58 AM 81.1 °F 88.2 °F 77.0 °F 87% 30.09 in 10.0 mi ESE 5.8 mph - N/A   Clear
2:58 AM 80.2 °F 86.0 °F 76.3 °F 88% 30.09 in 10.0 mi SE 3.5 mph - N/A   Clear
3:23 AM 80.6 °F 87.1 °F 77.0 °F 89% 30.06 in 10.0 mi SE 4.6 mph - N/A   Clear
3:58 AM 80.6 °F 86.9 °F 76.8 °F 88% 30.06 in 10.0 mi ESE 5.8 mph - N/A   Clear
4:58 AM 79.3 °F - 75.0 °F 87% 30.04 in 10.0 mi ESE 8.1 mph - N/A   Clear
5:58 AM 81.0 °F 87.3 °F 76.1 °F 85% 30.04 in 10.0 mi ESE 10.4 mph - N/A   Clear
6:58 AM 80.4 °F 86.1 °F 75.7 °F 86% 30.04 in 10.0 mi ESE 9.2 mph - N/A   Clear
7:58 AM 82.0 °F 90.2 °F 77.2 °F 85% 30.06 in 10.0 mi SE 8.1 mph - N/A   Clear
8:45 AM 84.2 °F 94.1 °F 77.0 °F 79% 30.05 in 9.0 mi SE 9.2 mph - N/A Rain Light Rain
8:51 AM 84.2 °F 94.1 °F 77.0 °F 79% 30.04 in 10.0 mi SE 10.4 mph - N/A   Clear
8:58 AM 84.2 °F 94.1 °F 77.0 °F 79% 30.06 in 10.0 mi SE 11.5 mph - 0.00 in   Clear
9:58 AM 85.6 °F 95.5 °F 75.9 °F 73% 30.08 in 10.0 mi SE 9.2 mph - N/A   Clear
10:58 AM 86.2 °F 95.5 °F 75.6 °F 70% 30.09 in 10.0 mi SSE 9.2 mph - N/A   Clear
11:58 AM 86.4 °F 93.4 °F 73.0 °F 64% 30.09 in 10.0 mi SSE 8.1 mph - N/A   Partly Cloudy
12:55 PM 86.0 °F 93.4 °F 73.4 °F 66% 30.07 in 10.0 mi East 8.1 mph - N/A   Clear
1:55 PM 87.8 °F 97.6 °F 75.2 °F 66% 30.06 in 10.0 mi East 10.4 mph - N/A   Clear
2:58 PM 86.5 °F 96.4 °F 75.6 °F 70% 30.04 in 10.0 mi East 11.5 mph - N/A   Clear
3:29 PM 86.0 °F 93.4 °F 73.4 °F 66% 30.03 in 10.0 mi ESE 10.4 mph - N/A   Light Drizzle
3:30 PM 86.0 °F 91.8 °F 71.6 °F 62% 30.03 in 10.0 mi East 10.4 mph - N/A   Clear
3:58 PM 86.5 °F 94.2 °F 73.4 °F 65% 30.04 in 10.0 mi ESE 9.2 mph - 0.00 in   Clear
4:58 PM 86.7 °F 95.9 °F 75.2 °F 68% 30.03 in 10.0 mi East 11.5 mph - N/A   Clear
5:14 PM 86.0 °F 95.1 °F 75.2 °F 70% 30.01 in 10.0 mi ESE 11.5 mph - N/A   Light Drizzle
5:24 PM 86.0 °F 95.1 °F 75.2 °F 70% 30.01 in 10.0 mi ESE 10.4 mph - N/A   Clear
5:58 PM 86.0 °F 96.0 °F 75.9 °F 72% 30.01 in 10.0 mi ESE 9.2 mph - 0.00 in   Clear
6:58 PM 84.9 °F 92.5 °F 74.3 °F 70% 30.01 in 10.0 mi ESE 10.4 mph - N/A   Clear
7:58 PM 83.1 °F 90.4 °F 74.8 °F 76% 30.03 in 10.0 mi SE 10.4 mph - N/A   Clear
8:58 PM 82.6 °F 89.7 °F 75.2 °F 78% 30.06 in 10.0 mi SE 5.8 mph - N/A   Clear
9:58 PM 82.4 °F 89.5 °F 75.2 °F 79% 30.06 in 10.0 mi ESE 3.5 mph - N/A   Clear
10:58 PM 81.9 °F 88.9 °F 75.9 °F 82% 30.08 in 10.0 mi ENE 4.6 mph - N/A   Clear
11:58 PM 81.7 °F 89.0 °F 76.5 °F 84% 30.08 in 10.0 mi East 5.8 mph - N/A   Clear